TimeMST,TemperatureF,Dew PointF,Humidity,Sea Level PressureIn,VisibilityMPH,Wind Direction,Wind SpeedMPH,Gust SpeedMPH,PrecipitationIn,Events,Conditions,WindDirDegrees,DateUTC
12:15 AM,32.0,10.4,41,30.01,10.0,Calm,Calm,-,N/A,,Clear,0,2013-02-14 07:15:00
12:35 AM,32.0,10.4,41,30.01,10.0,WSW,9.2,-,N/A,,Clear,250,2013-02-14 07:35:00
12:55 AM,32.0,10.4,41,30.01,10.0,Calm,Calm,-,N/A,,Clear,0,2013-02-14 07:55:00
1:15 AM,32.0,10.4,41,30.02,10.0,West,9.2,-,N/A,,Clear,270,2013-02-14 08:15:00
1:35 AM,32.0,10.4,41,30.02,10.0,Calm,Calm,-,N/A,,Clear,0,2013-02-14 08:35:00
1:55 AM,30.2,12.2,47,30.01,10.0,West,4.6,-,N/A,,Clear,280,2013-02-14 08:55:00
2:15 AM,30.2,10.4,44,30.00,10.0,WNW,6.9,-,N/A,,Clear,290,2013-02-14 09:15:00
2:35 AM,28.4,12.2,51,30.00,10.0,Calm,Calm,-,N/A,,Clear,0,2013-02-14 09:35:00
2:55 AM,28.4,12.2,51,30.00,10.0,Calm,Calm,-,N/A,,Clear,0,2013-02-14 09:55:00
3:15 AM,32.0,14.0,48,30.00,10.0,Calm,Calm,-,N/A,,Clear,0,2013-02-14 10:15:00
3:35 AM,28.4,14.0,55,30.00,10.0,WSW,8.1,-,N/A,,Clear,250,2013-02-14 10:35:00
3:55 AM,32.0,12.2,44,30.00,10.0,WNW,4.6,-,N/A,,Clear,290,2013-02-14 10:55:00
5:50 AM,37.4,14.0,38,30.01,10.0,West,13.8,-,N/A,,Clear,270,2013-02-14 12:50:00
6:50 AM,37.4,14.0,38,30.03,10.0,West,10.4,-,N/A,,Clear,270,2013-02-14 13:50:00
7:50 AM,41.0,15.8,36,30.05,10.0,West,15.0,-,N/A,,Clear,270,2013-02-14 14:50:00
9:50 AM,53.6,17.6,24,30.04,10.0,WNW,16.1,-,N/A,,Clear,290,2013-02-14 16:50:00
10:50 AM,57.2,15.8,20,30.04,10.0,West,13.8,19.6,N/A,,Clear,280,2013-02-14 17:50:00
11:50 AM,59.0,14.0,17,30.01,10.0,West,12.7,19.6,N/A,,Clear,280,2013-02-14 18:50:00
12:50 PM,59.0,14.0,17,29.98,10.0,West,6.9,17.3,N/A,,Clear,260,2013-02-14 19:50:00
1:50 PM,62.6,12.2,14,29.97,10.0,West,11.5,-,N/A,,Clear,260,2013-02-14 20:50:00
2:50 PM,62.6,14.0,15,29.97,10.0,West,11.5,-,N/A,,Clear,260,2013-02-14 21:50:00
3:50 PM,60.8,14.0,16,29.98,10.0,West,11.5,-,N/A,,Clear,270,2013-02-14 22:50:00
4:50 PM,59.0,14.0,17,29.99,10.0,WNW,9.2,-,N/A,,Clear,290,2013-02-14 23:50:00
5:15 PM,59.0,14.0,17,29.99,10.0,WNW,8.1,-,N/A,,Clear,300,2013-02-15 00:15:00
5:35 PM,55.4,14.0,20,29.99,10.0,Calm,Calm,-,N/A,,Clear,0,2013-02-15 00:35:00
5:50 PM,50.0,14.0,24,29.99,10.0,NW,4.6,-,N/A,,Clear,310,2013-02-15 00:50:00
5:55 PM,50.0,14.0,24,29.99,10.0,NNW,6.9,-,N/A,,Clear,330,2013-02-15 00:55:00
6:15 PM,48.2,14.0,25,29.99,10.0,Calm,Calm,-,N/A,,Clear,0,2013-02-15 01:15:00
6:35 PM,46.4,14.0,27,30.00,10.0,Calm,Calm,-,N/A,,Clear,0,2013-02-15 01:35:00
6:55 PM,44.6,15.8,31,30.01,10.0,Calm,Calm,-,N/A,,Clear,0,2013-02-15 01:55:00
7:15 PM,44.6,15.8,31,30.02,10.0,NNW,4.6,-,N/A,,Clear,330,2013-02-15 02:15:00
7:35 PM,44.6,15.8,31,30.03,10.0,NNW,8.1,-,N/A,,Clear,340,2013-02-15 02:35:00
7:55 PM,46.4,15.8,29,30.05,10.0,North,9.2,-,N/A,,Clear,350,2013-02-15 02:55:00
8:15 PM,46.4,17.6,32,30.06,10.0,North,12.7,-,N/A,,Clear,10,2013-02-15 03:15:00
8:35 PM,46.4,23.0,40,30.07,10.0,NNE,17.3,23.0,N/A,,Clear,20,2013-02-15 03:35:00
8:55 PM,44.6,24.8,46,30.09,10.0,NNE,16.1,-,N/A,,Clear,30,2013-02-15 03:55:00
9:15 PM,44.6,26.6,49,30.10,10.0,NNE,16.1,23.0,N/A,,Clear,30,2013-02-15 04:15:00
9:35 PM,44.6,26.6,49,30.11,10.0,NNE,18.4,23.0,N/A,,Clear,30,2013-02-15 04:35:00
10:15 PM,41.0,28.4,61,30.14,10.0,NNE,21.9,26.5,N/A,,Clear,30,2013-02-15 05:15:00
10:35 PM,41.0,28.4,61,30.16,10.0,NNE,23.0,-,N/A,,Clear,30,2013-02-15 05:35:00
10:55 PM,39.2,28.4,65,30.17,10.0,North,17.3,23.0,N/A,,Clear,10,2013-02-15 05:55:00
11:15 PM,39.2,32.0,75,30.18,10.0,NNE,17.3,24.2,N/A,,Clear,30,2013-02-15 06:15:00
11:35 PM,37.4,32.0,81,30.19,10.0,NNE,16.1,23.0,N/A,,Clear,20,2013-02-15 06:35:00
11:55 PM,37.4,32.0,81,30.20,10.0,NNE,16.1,21.9,N/A,,Clear,30,2013-02-15 06:55:00